weather.gov     
National Weather Service

Terminal Aerodrome Forecast
NWS Homepage
This page is being discontinued on March 12, 2014.
The same data is available at this site. Please update your bookmarks.
Thank you, and we apologize for the inconvenience.
Please send an email to SR-SRH.Webmaster@noaa.gov with any concerns.


Current Version
Previous Version:    01  02  03  04  05  06  07  08  09  10  11  12  13  14  15  16  17  18  19  20  21  22  23  
[Printable]
972
FTUS46 KOTX 240538
TAFLWS
TAF
KLWS 240538Z 2406/2506 10006KT P6SM -SHRA BKN060 OVC080
     FM241500 23010KT P6SM -RA BKN030 OVC060
     FM241800 30010G19KT P6SM VCSH SCT040 BKN060
     FM242000 29013G22KT P6SM -SHRA SCT060 BKN080
     FM250100 27008KT P6SM BKN080=


972
FTUS46 KOTX 240538
TAFLWS
TAF
KLWS 240538Z 2406/2506 10006KT P6SM -SHRA BKN060 OVC080
     FM241500 23010KT P6SM -RA BKN030 OVC060
     FM241800 30010G19KT P6SM VCSH SCT040 BKN060
     FM242000 29013G22KT P6SM -SHRA SCT060 BKN080
     FM250100 27008KT P6SM BKN080=




U.S. Dept. of Commerce
NOAA National Weather Service
1325 East West Highway
Silver Spring, MD 20910
E-mail: w-nws.webmaster@noaa.gov
Page last modified: May 16, 2007
NATIONAL WEATHER SERVICE: for Safety, for Work, for Fun - FOR LIFE